PAT29 KFBG-KCAE

Flight info

Callsign PAT29
Flight time 0h 43m
Altitude 12000
Route LORRY V296 LILLS V155 BLOTS T437 BEFTY
Aircraft BE20/L-SBGRY/S

Departure

Time 2026-04-29 23:44
Airport Simmons Army Air Field (KFBG)

Arrival

Time 2026-04-30 00:28
Airport Columbia Metropolitan Airport (KCAE)
Time Latitude Longitude Altitude Speed Heading
2026-04-29 23:37 35.13431 -78.93900 235 ft 0 kts 95°
2026-04-29 23:40 35.13431 -78.93897 235 ft 1 kts 94°
2026-04-29 23:41 35.13430 -78.93869 234 ft 5 kts 91°
2026-04-29 23:41 35.13403 -78.93819 233 ft 10 kts 171°
2026-04-29 23:41 35.13336 -78.93791 231 ft 12 kts 96°
2026-04-29 23:41 35.13342 -78.93671 229 ft 16 kts 87°
2026-04-29 23:42 35.13349 -78.93527 227 ft 18 kts 84°
2026-04-29 23:42 35.13359 -78.93362 225 ft 20 kts 85°
2026-04-29 23:42 35.13369 -78.93189 222 ft 21 kts 88°
2026-04-29 23:42 35.13339 -78.93019 220 ft 20 kts 130°
2026-04-29 23:43 35.13266 -78.92923 218 ft 10 kts 166°
2026-04-29 23:43 35.13244 -78.92935 218 ft 5 kts 256°
2026-04-29 23:43 35.13219 -78.93303 223 ft 81 kts 268°
2026-04-29 23:43 35.13175 -78.94197 254 ft 121 kts 267°
2026-04-29 23:44 35.13200 -78.95231 479 ft 125 kts 274°
2026-04-29 23:44 35.13325 -78.96339 726 ft 139 kts 274°
2026-04-29 23:44 35.13161 -78.97540 1084 ft 155 kts 239°
2026-04-29 23:44 35.12418 -78.98553 1454 ft 169 kts 224°
2026-04-29 23:45 35.11492 -78.99518 1838 ft 177 kts 221°
2026-04-29 23:45 35.10508 -79.00433 2220 ft 183 kts 219°
2026-04-29 23:45 35.09457 -79.01350 2606 ft 187 kts 218°
2026-04-29 23:45 35.08379 -79.02258 2991 ft 190 kts 218°
2026-04-29 23:46 35.07264 -79.03182 3377 ft 192 kts 218°
2026-04-29 23:46 35.06153 -79.04092 3757 ft 194 kts 218°
2026-04-29 23:46 35.05033 -79.05003 4146 ft 194 kts 217°
2026-04-29 23:46 35.03898 -79.05927 4527 ft 195 kts 217°
2026-04-29 23:47 35.02767 -79.06844 4910 ft 195 kts 218°
2026-04-29 23:47 35.01647 -79.07757 5288 ft 194 kts 218°
2026-04-29 23:47 35.00516 -79.08670 5671 ft 194 kts 218°
2026-04-29 23:47 34.99400 -79.09573 6055 ft 193 kts 219°
2026-04-29 23:48 34.98277 -79.10485 6444 ft 192 kts 221°
2026-04-29 23:48 34.97638 -79.11752 6855 ft 176 kts 266°
2026-04-29 23:48 34.97527 -79.13251 7281 ft 175 kts 267°
2026-04-29 23:48 34.97414 -79.14719 7692 ft 175 kts 268°
2026-04-29 23:49 34.97327 -79.16199 8099 ft 179 kts 269°
2026-04-29 23:49 34.97242 -79.17737 8506 ft 182 kts 270°
2026-04-29 23:49 34.97166 -79.19266 8888 ft 184 kts 271°
2026-04-29 23:49 34.97092 -79.20817 9255 ft 185 kts 271°
2026-04-29 23:50 34.97017 -79.22370 9651 ft 184 kts 271°
2026-04-29 23:50 34.96944 -79.23936 10014 ft 184 kts 271°
2026-04-29 23:50 34.96796 -79.27023 10777 ft 182 kts 271°
2026-04-29 23:51 34.96725 -79.28569 11161 ft 181 kts 272°
2026-04-29 23:51 34.96654 -79.30077 11556 ft 179 kts 272°
2026-04-29 23:51 34.96584 -79.31564 11887 ft 177 kts 272°
2026-04-29 23:51 34.96517 -79.33108 12030 ft 189 kts 272°
2026-04-29 23:52 34.96446 -79.34751 12030 ft 195 kts 271°
2026-04-29 23:52 34.96366 -79.36410 12008 ft 199 kts 271°
2026-04-29 23:52 34.96286 -79.38088 12007 ft 200 kts 271°
2026-04-29 23:52 34.96204 -79.39798 12021 ft 202 kts 271°
2026-04-29 23:53 34.96121 -79.41511 12021 ft 204 kts 271°
2026-04-29 23:53 34.96036 -79.43246 12019 ft 206 kts 271°
2026-04-29 23:53 34.95954 -79.44992 12018 ft 207 kts 271°
2026-04-29 23:53 34.95866 -79.46741 12014 ft 208 kts 271°
2026-04-29 23:54 34.95785 -79.48519 12014 ft 209 kts 271°
2026-04-29 23:54 34.95697 -79.50291 12016 ft 209 kts 271°
2026-04-29 23:54 34.95616 -79.52055 12042 ft 211 kts 272°
2026-04-29 23:54 34.95533 -79.53848 12001 ft 210 kts 271°
2026-04-29 23:55 34.95448 -79.55627 12010 ft 210 kts 271°
2026-04-29 23:55 34.95366 -79.57398 12017 ft 210 kts 271°
2026-04-29 23:55 34.95283 -79.59187 12016 ft 211 kts 271°
2026-04-29 23:55 34.95190 -79.60968 12018 ft 211 kts 271°
2026-04-29 23:56 34.95103 -79.62754 12024 ft 211 kts 271°
2026-04-29 23:56 34.95015 -79.64523 12022 ft 211 kts 271°
2026-04-29 23:56 34.94924 -79.66316 12030 ft 211 kts 271°
2026-04-29 23:56 34.94836 -79.68115 12034 ft 212 kts 271°
2026-04-29 23:57 34.94750 -79.69925 12031 ft 212 kts 271°
2026-04-29 23:57 34.94655 -79.71721 12034 ft 212 kts 271°
2026-04-29 23:57 34.94564 -79.73492 12035 ft 212 kts 271°
2026-04-29 23:57 34.94479 -79.75301 12037 ft 213 kts 271°
2026-04-29 23:58 34.94388 -79.77097 12034 ft 213 kts 271°
2026-04-29 23:58 34.94300 -79.78909 12032 ft 213 kts 270°
2026-04-29 23:58 34.94209 -79.80709 12039 ft 214 kts 271°
2026-04-29 23:58 34.94114 -79.82526 12018 ft 214 kts 270°
2026-04-29 23:59 34.94021 -79.84322 12025 ft 213 kts 271°
2026-04-29 23:59 34.93928 -79.86131 12027 ft 213 kts 271°
2026-04-29 23:59 34.93834 -79.87917 12027 ft 213 kts 271°
2026-04-29 23:59 34.93744 -79.89705 12029 ft 213 kts 271°
2026-04-30 00:00 34.93649 -79.91528 12027 ft 212 kts 271°
2026-04-30 00:00 34.93348 -79.93298 12013 ft 221 kts 249°
2026-04-30 00:00 34.92326 -79.94728 12033 ft 230 kts 231°
2026-04-30 00:00 34.91164 -79.96087 12029 ft 230 kts 232°
2026-04-30 00:01 34.90013 -79.97438 12027 ft 230 kts 232°
2026-04-30 00:01 34.88872 -79.98796 12024 ft 230 kts 232°
2026-04-30 00:01 34.87712 -80.00167 12020 ft 230 kts 232°
2026-04-30 00:01 34.86572 -80.01543 12003 ft 231 kts 232°
2026-04-30 00:02 34.85437 -80.02914 12018 ft 229 kts 232°
2026-04-30 00:02 34.84300 -80.04289 12050 ft 231 kts 232°
2026-04-30 00:02 34.83152 -80.05671 12031 ft 232 kts 233°
2026-04-30 00:02 34.82006 -80.07062 12021 ft 232 kts 233°
2026-04-30 00:03 34.80842 -80.08471 12020 ft 232 kts 233°
2026-04-30 00:03 34.79710 -80.09847 12002 ft 231 kts 232°
2026-04-30 00:03 34.78569 -80.11226 12018 ft 231 kts 232°
2026-04-30 00:03 34.77428 -80.12603 12021 ft 230 kts 232°
2026-04-30 00:04 34.76291 -80.13976 12031 ft 231 kts 232°
2026-04-30 00:04 34.75153 -80.15347 12018 ft 231 kts 232°
2026-04-30 00:04 34.74023 -80.16719 12021 ft 230 kts 232°
2026-04-30 00:04 34.72883 -80.18092 12022 ft 231 kts 232°
2026-04-30 00:05 34.71737 -80.19466 12023 ft 231 kts 232°
2026-04-30 00:05 34.70594 -80.20860 12018 ft 231 kts 232°
2026-04-30 00:05 34.69462 -80.22222 12019 ft 230 kts 232°
2026-04-30 00:05 34.68319 -80.23596 12013 ft 230 kts 232°
2026-04-30 00:06 34.67176 -80.24971 12017 ft 229 kts 232°
2026-04-30 00:06 34.66040 -80.26339 12020 ft 229 kts 232°
2026-04-30 00:06 34.64968 -80.27728 12015 ft 224 kts 242°
2026-04-30 00:06 34.64179 -80.29362 12022 ft 221 kts 246°
2026-04-30 00:07 34.63399 -80.30951 12021 ft 222 kts 246°
2026-04-30 00:07 34.62603 -80.32584 12023 ft 222 kts 247°
2026-04-30 00:07 34.61818 -80.34188 12023 ft 222 kts 246°
2026-04-30 00:07 34.61032 -80.35795 12023 ft 222 kts 246°
2026-04-30 00:08 34.60239 -80.37417 12023 ft 222 kts 246°
2026-04-30 00:08 34.59452 -80.39043 12018 ft 223 kts 247°
2026-04-30 00:08 34.58655 -80.40674 12018 ft 223 kts 246°
2026-04-30 00:08 34.57872 -80.42274 12023 ft 222 kts 247°
2026-04-30 00:09 34.57079 -80.43888 12025 ft 223 kts 246°
2026-04-30 00:09 34.56292 -80.45505 12023 ft 223 kts 246°
2026-04-30 00:09 34.55490 -80.47143 12026 ft 223 kts 246°
2026-04-30 00:09 34.54698 -80.48749 12022 ft 224 kts 246°
2026-04-30 00:10 34.53898 -80.50382 12016 ft 224 kts 246°
2026-04-30 00:10 34.53109 -80.52000 12008 ft 224 kts 246°
2026-04-30 00:10 34.52309 -80.53625 12012 ft 223 kts 246°
2026-04-30 00:10 34.51516 -80.55240 12009 ft 223 kts 246°
2026-04-30 00:11 34.50726 -80.56855 12007 ft 223 kts 246°
2026-04-30 00:11 34.49939 -80.58465 12008 ft 222 kts 246°
2026-04-30 00:11 34.49128 -80.60106 11843 ft 226 kts 246°
2026-04-30 00:11 34.48322 -80.61727 11646 ft 225 kts 246°
2026-04-30 00:12 34.47524 -80.63355 11449 ft 225 kts 246°
2026-04-30 00:12 34.46717 -80.64997 11244 ft 226 kts 246°
2026-04-30 00:12 34.45911 -80.66644 11043 ft 226 kts 246°
2026-04-30 00:12 34.45099 -80.68292 10852 ft 227 kts 246°
2026-04-30 00:13 34.44291 -80.69937 10655 ft 227 kts 245°
2026-04-30 00:13 34.43488 -80.71561 10474 ft 227 kts 245°
2026-04-30 00:13 34.42670 -80.73228 10282 ft 228 kts 245°
2026-04-30 00:13 34.41857 -80.74867 10100 ft 227 kts 245°
2026-04-30 00:14 34.41050 -80.76513 9915 ft 227 kts 245°
2026-04-30 00:14 34.40237 -80.78159 9719 ft 228 kts 245°
2026-04-30 00:14 34.39417 -80.79812 9526 ft 228 kts 245°
2026-04-30 00:14 34.38610 -80.81446 9331 ft 228 kts 245°
2026-04-30 00:15 34.37793 -80.83102 9138 ft 229 kts 245°
2026-04-30 00:15 34.36977 -80.84747 8949 ft 229 kts 245°
2026-04-30 00:15 34.36152 -80.86415 8757 ft 229 kts 245°
2026-04-30 00:15 34.35343 -80.88048 8564 ft 229 kts 244°
2026-04-30 00:16 34.34516 -80.89719 8359 ft 229 kts 245°
2026-04-30 00:16 34.33699 -80.91367 8162 ft 229 kts 245°
2026-04-30 00:16 34.32877 -80.93032 7970 ft 229 kts 245°
2026-04-30 00:16 34.32058 -80.94691 7782 ft 229 kts 245°
2026-04-30 00:17 34.31247 -80.96332 7594 ft 230 kts 244°
2026-04-30 00:17 34.30416 -80.98007 7386 ft 230 kts 244°
2026-04-30 00:17 34.29594 -80.99667 7188 ft 230 kts 245°
2026-04-30 00:17 34.28749 -81.01307 6989 ft 232 kts 238°
2026-04-30 00:18 34.27461 -81.02531 6772 ft 245 kts 209°
2026-04-30 00:18 34.25742 -81.02827 6579 ft 256 kts 180°
2026-04-30 00:18 34.23950 -81.02696 6390 ft 254 kts 186°
2026-04-30 00:18 34.22180 -81.02742 6197 ft 254 kts 186°
2026-04-30 00:19 34.20413 -81.02826 5997 ft 253 kts 188°
2026-04-30 00:19 34.18649 -81.02953 5805 ft 253 kts 189°
2026-04-30 00:19 34.16891 -81.03084 5614 ft 252 kts 189°
2026-04-30 00:19 34.15151 -81.03208 5412 ft 244 kts 185°
2026-04-30 00:20 34.13596 -81.02640 5195 ft 225 kts 160°
2026-04-30 00:20 34.12200 -81.01932 4981 ft 206 kts 161°
2026-04-30 00:20 34.10934 -81.01252 4769 ft 191 kts 162°
2026-04-30 00:20 34.09749 -81.00621 4560 ft 178 kts 162°
2026-04-30 00:21 34.08644 -81.00034 4352 ft 168 kts 163°
2026-04-30 00:21 34.07601 -80.99482 4150 ft 158 kts 163°
2026-04-30 00:21 34.06618 -80.98959 3942 ft 150 kts 163°
2026-04-30 00:21 34.05689 -80.98462 3725 ft 144 kts 164°
2026-04-30 00:22 34.04751 -80.97974 3437 ft 144 kts 163°
2026-04-30 00:22 34.03847 -80.97499 3169 ft 143 kts 163°
2026-04-30 00:22 34.02955 -80.97029 2920 ft 141 kts 163°
2026-04-30 00:22 34.02065 -80.96555 2650 ft 140 kts 164°
2026-04-30 00:23 34.01030 -80.96066 2525 ft 179 kts 164°
2026-04-30 00:23 33.99753 -80.95482 2371 ft 204 kts 173°
2026-04-30 00:23 33.98457 -80.95806 2181 ft 186 kts 222°
2026-04-30 00:23 33.97834 -80.97060 2010 ft 176 kts 256°
2026-04-30 00:24 33.97512 -80.98473 1822 ft 176 kts 255°
2026-04-30 00:24 33.97184 -80.99872 1682 ft 167 kts 249°
2026-04-30 00:24 33.96494 -81.00913 1315 ft 149 kts 219°
2026-04-30 00:24 33.95599 -81.01331 959 ft 134 kts 207°
2026-04-30 00:25 33.94869 -81.01953 951 ft 118 kts 229°
2026-04-30 00:25 33.94425 -81.02821 877 ft 124 kts 248°
2026-04-30 00:25 33.94157 -81.03721 1033 ft 117 kts 254°
2026-04-30 00:25 33.93878 -81.04677 1068 ft 123 kts 250°
2026-04-30 00:26 33.93584 -81.05630 999 ft 118 kts 252°
2026-04-30 00:26 33.93359 -81.06546 853 ft 111 kts 257°
2026-04-30 00:26 33.93265 -81.07452 708 ft 107 kts 269°
2026-04-30 00:26 33.93325 -81.08326 648 ft 103 kts 275°
2026-04-30 00:27 33.93451 -81.09174 566 ft 102 kts 280°
2026-04-30 00:27 33.93611 -81.10012 444 ft 100 kts 281°
2026-04-30 00:27 33.93771 -81.10795 266 ft 94 kts 279°
2026-04-30 00:27 33.93901 -81.11459 214 ft 58 kts 284°
2026-04-30 00:28 33.93975 -81.11791 219 ft 27 kts 286°
2026-04-30 00:28 33.94022 -81.11993 223 ft 23 kts 287°
2026-04-30 00:28 33.94063 -81.12157 227 ft 20 kts 287°
2026-04-30 00:28 33.94112 -81.12315 230 ft 19 kts 298°
2026-04-30 00:29 33.94190 -81.12450 234 ft 19 kts 313°
2026-04-30 00:29 33.94288 -81.12566 238 ft 20 kts 314°
2026-04-30 00:29 33.94348 -81.12547 239 ft 17 kts 107°
2026-04-30 00:29 33.94310 -81.12389 236 ft 21 kts 105°
2026-04-30 00:30 33.94268 -81.12199 232 ft 25 kts 104°
2026-04-30 00:30 33.94221 -81.11982 227 ft 27 kts 105°
2026-04-30 00:30 33.94173 -81.11768 222 ft 18 kts 103°
2026-04-30 00:30 33.94229 -81.11687 222 ft 12 kts 33°
2026-04-30 00:31 33.94264 -81.11643 222 ft 8 kts 357°
2026-04-30 00:31 33.94281 -81.11629 222 ft 0 kts 96°